QPF
0.00 0.00 0.00 0.00 0.00 0.00 0.00 0.00 0.00 0.00 0.00 0.01 0.01 0.00 0.00 0.00 0.00 0.01 0.01 0.01 0.01 0.01 0.01 0.01 0.01 0.01 0.01 0.01 0.01 0.02 0.02 0.04 0.05 0.06 0.09 0.11 0.12 0.14 0.14 0.12 0.11 0.11 0.10 0.11
0.00 0.00 0.00 0.00 0.00 0.00 0.00 0.00 0.00 0.00 0.00 0.00 0.00 0.00 0.00 0.00 0.00 0.00 0.01 0.00 0.00 0.00 0.01 0.01 0.02 0.02 0.02 0.02 0.02 0.02 0.02 0.03 0.04 0.05 0.07 0.12 0.15 0.17 0.17 0.17 0.17 0.15 0.14 0.12
0.00 0.00 0.00 0.01 0.00 0.00 0.00 0.00 0.00 0.00 0.00 0.00 0.00 0.00 0.00 0.00 0.00 0.01 0.01 0.00 0.00 0.00 0.01 0.01 0.02 0.03 0.04 0.03 0.02 0.02 0.03 0.03 0.02 0.03 0.07 0.11 0.15 0.17 0.20 0.22 0.21 0.20 0.16 0.13
0.00 0.01 0.01 0.00 0.00 0.00 0.00 0.00 0.00 0.00 0.00 0.00 0.00 0.01 0.01 0.00 0.00 0.00 0.01 0.01 0.01 0.01 0.01 0.01 0.02 0.03 0.03 0.03 0.02 0.02 0.02 0.02 0.02 0.02 0.03 0.07 0.13 0.16 0.20 0.23 0.21 0.20 0.18 0.16
0.01 0.01 0.01 0.01 0.01 0.00 0.00 0.01 0.01 0.00 0.00 0.00 0.00 0.00 0.01 0.00 0.00 0.01 0.01 0.01 0.01 0.02 0.01 0.01 0.01 0.03 0.04 0.03 0.03 0.03 0.03 0.03 0.03 0.03 0.05 0.06 0.09 0.12 0.16 0.17 0.18 0.18 0.20 0.17
0.01 0.01 0.01 0.01 0.00 0.00 0.01 0.02 0.01 0.00 0.00 0.00 0.00 0.01 0.01 0.01 0.01 0.01 0.01 0.01 0.01 0.01 0.02 0.01 0.01 0.01 0.02 0.03 0.03 0.04 0.05 0.06 0.05 0.05 0.07 0.09 0.11 0.14 0.16 0.16 0.17 0.20 0.20 0.18
0.01 0.01 0.01 0.00 0.00 0.01 0.03 0.02 0.01 0.01 0.01 0.01 0.01 0.01 0.01 0.01 0.01 0.01 0.01 0.01 0.01 0.01 0.02 0.03 0.02 0.01 0.02 0.02 0.03 0.04 0.05 0.05 0.06 0.07 0.09 0.10 0.10 0.11 0.12 0.13 0.13 0.15 0.17 0.15
0.01 0.02 0.01 0.01 0.01 0.02 0.02 0.01 0.01 0.02 0.02 0.02 0.02 0.02 0.01 0.01 0.01 0.01 0.01 0.01 0.02 0.02 0.03 0.03 0.03 0.03 0.03 0.03 0.03 0.04 0.05 0.06 0.06 0.06 0.08 0.10 0.11 0.10 0.09 0.10 0.10 0.10 0.12 0.13
0.01 0.02 0.01 0.01 0.01 0.01 0.00 0.01 0.01 0.01 0.02 0.02 0.02 0.01 0.01 0.01 0.01 0.01 0.01 0.02 0.01 0.02 0.02 0.03 0.03 0.03 0.04 0.04 0.04 0.04 0.07 0.08 0.09 0.09 0.12 0.12 0.11 0.10 0.08 0.07 0.07 0.05 0.06 0.07
0.01 0.01 0.01 0.01 0.01 0.00 0.01 0.02 0.02 0.02 0.01 0.01 0.02 0.01 0.01 0.01 0.01 0.01 0.02 0.03 0.02 0.03 0.03 0.03 0.03 0.04 0.04 0.04 0.04 0.04 0.06 0.08 0.10 0.12 0.12 0.12 0.13 0.13 0.09 0.07 0.06 0.06 0.07 0.07
0.01 0.01 0.01 0.01 0.01 0.01 0.01 0.02 0.02 0.01 0.01 0.01 0.01 0.01 0.01 0.01 0.01 0.01 0.01 0.02 0.03 0.03 0.03 0.03 0.03 0.03 0.03 0.03 0.03 0.04 0.06 0.08 0.10 0.09 0.08 0.08 0.09 0.11 0.11 0.09 0.08 0.07 0.08 0.09
0.02 0.01 0.01 0.02 0.01 0.01 0.01 0.01 0.02 0.02 0.01 0.01 0.01 0.01 0.01 0.01 0.01 0.01 0.01 0.02 0.02 0.03 0.03 0.04 0.03 0.04 0.04 0.04 0.04 0.05 0.06 0.06 0.07 0.07 0.07 0.07 0.07 0.07 0.07 0.07 0.06 0.06 0.06 0.06
0.01 0.01 0.01 0.02 0.03 0.02 0.02 0.03 0.02 0.01 0.01 0.01 0.01 0.00 0.00 0.01 0.01 0.01 0.02 0.03 0.03 0.03 0.03 0.03 0.03 0.04 0.05 0.04 0.06 0.08 0.06 0.06 0.06 0.06 0.07 0.07 0.06 0.04 0.04 0.04 0.04 0.04 0.04 0.04
0.01 0.02 0.03 0.03 0.03 0.03 0.03 0.04 0.03 0.02 0.01 0.01 0.01 0.01 0.01 0.01 0.00 0.01 0.01 0.02 0.02 0.03 0.03 0.03 0.03 0.04 0.05 0.05 0.06 0.09 0.08 0.08 0.08 0.08 0.08 0.09 0.10 0.09 0.07 0.05 0.04 0.03 0.03 0.03
0.03 0.03 0.04 0.03 0.04 0.04 0.04 0.03 0.03 0.02 0.02 0.02 0.01 0.01 0.01 0.01 0.01 0.01 0.01 0.01 0.01 0.02 0.02 0.03 0.03 0.04 0.04 0.05 0.05 0.06 0.05 0.05 0.06 0.08 0.08 0.08 0.08 0.06 0.05 0.04 0.04 0.03 0.02 0.02
0.05 0.05 0.04 0.04 0.05 0.05 0.03 0.02 0.02 0.02 0.02 0.02 0.01 0.01 0.01 0.01 0.01 0.01 0.01 0.01 0.02 0.03 0.03 0.03 0.04 0.05 0.05 0.06 0.06 0.06 0.05 0.05 0.05 0.05 0.04 0.03 0.03 0.02 0.02 0.01 0.01 0.02 0.02 0.02
0.06 0.05 0.04 0.05 0.06 0.06 0.04 0.03 0.02 0.03 0.04 0.04 0.03 0.02 0.01 0.01 0.01 0.01 0.01 0.02 0.02 0.01 0.01 0.02 0.03 0.03 0.04 0.05 0.06 0.06 0.05 0.04 0.02 0.01 0.01 0.01 0.01 0.01 0.01 0.01 0.01 0.01 0.01 0.01
0.04 0.04 0.04 0.05 0.06 0.05 0.04 0.03 0.03 0.03 0.04 0.04 0.03 0.02 0.02 0.02 0.01 0.01 0.01 0.01 0.02 0.02 0.01 0.01 0.01 0.01 0.02 0.02 0.03 0.03 0.02 0.01 0.01 0.01 0.01 0.00 0.00 0.00 0.00 0.00 0.00 0.00 0.00 0.00
0.02 0.02 0.03 0.04 0.05 0.04 0.03 0.03 0.03 0.04 0.04 0.04 0.03 0.03 0.02 0.02 0.01 0.01 0.01 0.01 0.01 0.01 0.01 0.01 0.01 0.01 0.01 0.00 0.00 0.01 0.00 0.00 0.00 0.00 0.00 0.00 0.00 0.00 0.00 0.00 0.00 0.01 0.01 0.00
0.02 0.02 0.03 0.03 0.04 0.05 0.05 0.05 0.04 0.05 0.05 0.04 0.03 0.04 0.03 0.02 0.02 0.01 0.01 0.01 0.01 0.01 0.01 0.01 0.01 0.01 0.00 0.00 0.00 0.00 0.00 0.00 0.00 0.00 0.00 0.00 0.00 0.00 0.00 0.00 0.00 0.00 0.00 0.00
0.02 0.02 0.03 0.03 0.04 0.04 0.04 0.04 0.05 0.05 0.06 0.05 0.04 0.04 0.03 0.03 0.02 0.01 0.01 0.01 0.01 0.01 0.01 0.01 0.00 0.01 0.01 0.00 0.00 0.00 0.00 0.00 0.00 0.00 0.00 0.00 0.00 0.00 0.00 0.00 0.00 0.00 0.00 0.00
0.03 0.03 0.03 0.04 0.04 0.04 0.04 0.03 0.03 0.04 0.06 0.06 0.04 0.03 0.04 0.02 0.01 0.01 0.00 0.00 0.00 0.00 0.00 0.00 0.00 0.00 0.00 0.00 0.00 0.00 0.00 0.00 0.00 0.00 0.00 0.00 0.00 0.00 0.00 0.00 0.00 0.00 0.00 0.00
0.03 0.03 0.04 0.05 0.05 0.05 0.04 0.03 0.03 0.04 0.06 0.06 0.04 0.03 0.03 0.02 0.01 0.01 0.01 0.01 0.00 0.00 0.00 0.00 0.00 0.00 0.00 0.00 0.00 0.00 0.00 0.00 0.00 0.00 0.00 0.00 0.00 0.00 0.00 0.00 0.00 0.00 0.00 0.00
0.03 0.03 0.05 0.05 0.05 0.05 0.05 0.04 0.03 0.03 0.03 0.03 0.02 0.02 0.02 0.02 0.02 0.02 0.01 0.01 0.00 0.00 0.00 0.00 0.00 0.00 0.00 0.00 0.00 0.00 0.00 0.00 0.00 0.00 0.00 0.00 0.00 0.00 0.00 0.00 0.00 0.00 0.00 0.00
0.04 0.04 0.04 0.04 0.05 0.04 0.04 0.03 0.02 0.02 0.02 0.02 0.01 0.01 0.01 0.01 0.01 0.00 0.00 0.00 0.00 0.00 0.00 0.00 0.00 0.00 0.00 0.00 0.00 0.00 0.00 0.00 0.00 0.00 0.00 0.00 0.00 0.00 0.00 0.00 0.00 0.00 0.00 0.00
0.05 0.04 0.04 0.04 0.03 0.03 0.02 0.01 0.01 0.01 0.02 0.02 0.01 0.01 0.00 0.00 0.00 0.00 0.00 0.00 0.00 0.00 0.00 0.00 0.00 0.00 0.00 0.00 0.00 0.00 0.00 0.00 0.00 0.00 0.00 0.00 0.00 0.00 0.00 0.00 0.00 0.00 0.00 0.00
0.05 0.04 0.04 0.05 0.05 0.03 0.02 0.02 0.02 0.02 0.02 0.01 0.01 0.00 0.00 0.00 0.00 0.00 0.00 0.00 0.00 0.00 0.00 0.00 0.00 0.00 0.00 0.00 0.01 0.00 0.00 0.00 0.00 0.00 0.00 0.00 0.00 0.00 0.00 0.00 0.00 0.00 0.00 0.00
MSLP
1006.69 1006.70 1006.69 1006.69 1006.72 1006.84 1007.04 1007.33 1007.70 1008.11 1008.53 1008.92 1009.24 1009.48 1009.63 1009.70 1009.70 1009.66 1009.60 1009.54 1009.50 1009.48 1009.48 1009.47 1009.45 1009.41 1009.33 1009.22 1009.08 1008.92 1008.77 1008.64 1008.56 1008.54 1008.61 1008.77 1009.01 1009.33 1009.73 1010.19 1010.68 1011.19 1011.71 1012.21
1006.61 1006.60 1006.53 1006.44 1006.38 1006.40 1006.53 1006.79 1007.17 1007.64 1008.17 1008.71 1009.20 1009.61 1009.92 1010.11 1010.19 1010.19 1010.13 1010.03 1009.93 1009.83 1009.75 1009.69 1009.62 1009.54 1009.44 1009.30 1009.13 1008.94 1008.75 1008.57 1008.43 1008.36 1008.38 1008.50 1008.72 1009.03 1009.42 1009.88 1010.38 1010.90 1011.42 1011.92
1006.45 1006.44 1006.35 1006.22 1006.09 1006.05 1006.12 1006.35 1006.73 1007.25 1007.87 1008.53 1009.16 1009.72 1010.16 1010.46 1010.62 1010.65 1010.59 1010.46 1010.30 1010.15 1010.01 1009.89 1009.78 1009.67 1009.55 1009.40 1009.22 1009.01 1008.79 1008.57 1008.40 1008.29 1008.26 1008.34 1008.53 1008.83 1009.21 1009.67 1010.16 1010.68 1011.20 1011.71
1006.14 1006.16 1006.07 1005.93 1005.78 1005.70 1005.75 1005.96 1006.35 1006.91 1007.59 1008.34 1009.09 1009.77 1010.32 1010.72 1010.95 1011.02 1010.97 1010.82 1010.63 1010.43 1010.23 1010.07 1009.93 1009.80 1009.66 1009.51 1009.32 1009.11 1008.87 1008.64 1008.45 1008.30 1008.25 1008.31 1008.48 1008.76 1009.13 1009.58 1010.08 1010.60 1011.13 1011.64
1005.65 1005.70 1005.65 1005.52 1005.38 1005.31 1005.35 1005.57 1005.98 1006.57 1007.30 1008.13 1008.96 1009.74 1010.39 1010.87 1011.17 1011.29 1011.26 1011.11 1010.90 1010.66 1010.44 1010.24 1010.07 1009.92 1009.77 1009.62 1009.44 1009.23 1009.00 1008.77 1008.57 1008.43 1008.37 1008.42 1008.59 1008.87 1009.25 1009.70 1010.21 1010.74 1011.27 1011.78
1005.02 1005.10 1005.07 1004.98 1004.88 1004.84 1004.91 1005.16 1005.60 1006.22 1007.01 1007.89 1008.79 1009.64 1010.37 1010.93 1011.30 1011.47 1011.47 1011.33 1011.12 1010.87 1010.62 1010.40 1010.21 1010.05 1009.90 1009.75 1009.59 1009.40 1009.20 1008.99 1008.82 1008.70 1008.66 1008.73 1008.92 1009.22 1009.61 1010.09 1010.61 1011.15 1011.69 1012.22
1004.33 1004.41 1004.41 1004.37 1004.32 1004.33 1004.45 1004.74 1005.22 1005.89 1006.72 1007.65 1008.61 1009.52 1010.31 1010.93 1011.36 1011.58 1011.62 1011.51 1011.31 1011.06 1010.80 1010.57 1010.37 1010.21 1010.07 1009.94 1009.80 1009.65 1009.49 1009.33 1009.21 1009.14 1009.15 1009.27 1009.50 1009.84 1010.27 1010.78 1011.32 1011.88 1012.43 1012.96
1003.68 1003.75 1003.77 1003.77 1003.78 1003.85 1004.04 1004.39 1004.92 1005.63 1006.49 1007.46 1008.46 1009.41 1010.25 1010.92 1011.39 1011.66 1011.74 1011.67 1011.49 1011.26 1011.01 1010.78 1010.59 1010.44 1010.32 1010.21 1010.11 1010.01 1009.91 1009.82 1009.77 1009.77 1009.85 1010.04 1010.33 1010.73 1011.21 1011.76 1012.33 1012.91 1013.47 1013.99
1003.21 1003.25 1003.28 1003.32 1003.38 1003.52 1003.78 1004.18 1004.76 1005.51 1006.40 1007.39 1008.40 1009.37 1010.24 1010.94 1011.45 1011.76 1011.88 1011.85 1011.70 1011.50 1011.28 1011.07 1010.90 1010.77 1010.67 1010.60 1010.55 1010.51 1010.48 1010.47 1010.49 1010.58 1010.75 1011.01 1011.38 1011.83 1012.37 1012.95 1013.56 1014.15 1014.71 1015.21
1003.01 1003.02 1003.05 1003.11 1003.23 1003.42 1003.74 1004.20 1004.81 1005.58 1006.49 1007.47 1008.49 1009.46 1010.33 1011.05 1011.58 1011.92 1012.08 1012.09 1011.99 1011.83 1011.64 1011.46 1011.32 1011.22 1011.16 1011.14 1011.14 1011.15 1011.19 1011.25 1011.36 1011.53 1011.77 1012.11 1012.54 1013.05 1013.63 1014.25 1014.88 1015.48 1016.03 1016.50
1003.13 1003.11 1003.14 1003.23 1003.38 1003.62 1003.98 1004.47 1005.11 1005.89 1006.78 1007.75 1008.74 1009.69 1010.54 1011.26 1011.81 1012.18 1012.38 1012.43 1012.38 1012.27 1012.13 1012.00 1011.90 1011.83 1011.81 1011.82 1011.86 1011.92 1012.01 1012.13 1012.29 1012.52 1012.82 1013.21 1013.69 1014.24 1014.85 1015.49 1016.13 1016.73 1017.27 1017.72
1003.53 1003.51 1003.55 1003.65 1003.84 1004.11 1004.49 1005.00 1005.64 1006.41 1007.27 1008.20 1009.15 1010.06 1010.89 1011.60 1012.15 1012.55 1012.79 1012.90 1012.90 1012.85 1012.77 1012.69 1012.62 1012.59 1012.59 1012.63 1012.69 1012.77 1012.88 1013.03 1013.22 1013.48 1013.81 1014.22 1014.72 1015.29 1015.91 1016.55 1017.19 1017.79 1018.31 1018.73
1004.14 1004.13 1004.19 1004.32 1004.53 1004.82 1005.22 1005.73 1006.35 1007.08 1007.90 1008.78 1009.67 1010.54 1011.34 1012.03 1012.59 1013.02 1013.31 1013.47 1013.55 1013.56 1013.53 1013.50 1013.47 1013.46 1013.48 1013.51 1013.57 1013.64 1013.74 1013.88 1014.06 1014.31 1014.64 1015.04 1015.53 1016.09 1016.71 1017.35 1017.98 1018.57 1019.08 1019.49
1004.84 1004.87 1004.96 1005.12 1005.35 1005.66 1006.06 1006.55 1007.15 1007.83 1008.60 1009.42 1010.26 1011.09 1011.85 1012.53 1013.11 1013.57 1013.90 1014.13 1014.28 1014.35 1014.38 1014.39 1014.39 1014.39 1014.39 1014.41 1014.43 1014.47 1014.53 1014.63 1014.77 1014.98 1015.28 1015.65 1016.12 1016.66 1017.26 1017.88 1018.50 1019.08 1019.59 1020.00
1005.51 1005.60 1005.74 1005.94 1006.19 1006.52 1006.91 1007.39 1007.95 1008.59 1009.31 1010.07 1010.86 1011.64 1012.38 1013.06 1013.65 1014.15 1014.54 1014.83 1015.04 1015.17 1015.25 1015.29 1015.30 1015.30 1015.28 1015.25 1015.22 1015.20 1015.20 1015.24 1015.33 1015.49 1015.74 1016.08 1016.51 1017.03 1017.60 1018.21 1018.82 1019.40 1019.91 1020.33
1006.09 1006.25 1006.45 1006.69 1006.98 1007.32 1007.71 1008.17 1008.70 1009.30 1009.97 1010.68 1011.43 1012.17 1012.90 1013.57 1014.18 1014.71 1015.15 1015.50 1015.76 1015.95 1016.07 1016.13 1016.14 1016.11 1016.06 1015.98 1015.89 1015.81 1015.75 1015.73 1015.77 1015.88 1016.09 1016.40 1016.81 1017.30 1017.85 1018.45 1019.06 1019.63 1020.15 1020.58
1006.55 1006.79 1007.06 1007.35 1007.67 1008.03 1008.43 1008.88 1009.39 1009.96 1010.59 1011.26 1011.96 1012.68 1013.38 1014.06 1014.68 1015.24 1015.71 1016.10 1016.41 1016.63 1016.77 1016.84 1016.84 1016.79 1016.70 1016.57 1016.44 1016.30 1016.19 1016.13 1016.14 1016.23 1016.41 1016.71 1017.10 1017.59 1018.14 1018.73 1019.33 1019.91 1020.42 1020.87
1006.94 1007.26 1007.59 1007.94 1008.31 1008.69 1009.11 1009.56 1010.05 1010.60 1011.19 1011.82 1012.49 1013.17 1013.85 1014.52 1015.14 1015.70 1016.20 1016.61 1016.93 1017.17 1017.32 1017.38 1017.38 1017.31 1017.19 1017.03 1016.86 1016.71 1016.58 1016.51 1016.51 1016.60 1016.80 1017.11 1017.51 1018.00 1018.56 1019.15 1019.74 1020.31 1020.82 1021.25
1007.34 1007.73 1008.13 1008.53 1008.94 1009.36 1009.80 1010.25 1010.74 1011.26 1011.82 1012.42 1013.05 1013.69 1014.34 1014.97 1015.57 1016.12 1016.61 1017.01 1017.34 1017.57 1017.71 1017.77 1017.76 1017.68 1017.55 1017.39 1017.23 1017.08 1016.97 1016.92 1016.96 1017.09 1017.33 1017.67 1018.10 1018.61 1019.17 1019.75 1020.33 1020.88 1021.36 1021.77
1007.84 1008.29 1008.75 1009.21 1009.66 1010.11 1010.57 1011.03 1011.51 1012.01 1012.54 1013.10 1013.68 1014.27 1014.86 1015.44 1016.00 1016.51 1016.96 1017.34 1017.65 1017.87 1018.00 1018.06 1018.04 1017.97 1017.85 1017.72 1017.59 1017.48 1017.43 1017.44 1017.54 1017.73 1018.02 1018.41 1018.88 1019.40 1019.97 1020.53 1021.09 1021.59 1022.03 1022.40
1008.51 1009.01 1009.52 1010.02 1010.51 1010.99 1011.46 1011.93 1012.40 1012.87 1013.37 1013.87 1014.39 1014.91 1015.43 1015.95 1016.44 1016.89 1017.29 1017.63 1017.91 1018.10 1018.23 1018.29 1018.29 1018.24 1018.16 1018.08 1018.01 1017.97 1017.99 1018.08 1018.25 1018.51 1018.87 1019.30 1019.79 1020.33 1020.88 1021.42 1021.93 1022.38 1022.77 1023.07
1009.37 1009.90 1010.44 1010.97 1011.49 1011.98 1012.46 1012.93 1013.38 1013.82 1014.26 1014.71 1015.15 1015.60 1016.04 1016.47 1016.89 1017.27 1017.61 1017.91 1018.15 1018.33 1018.46 1018.53 1018.56 1018.56 1018.53 1018.52 1018.52 1018.56 1018.66 1018.83 1019.08 1019.41 1019.81 1020.27 1020.78 1021.31 1021.83 1022.33 1022.78 1023.17 1023.49 1023.73
1010.37 1010.93 1011.48 1012.02 1012.55 1013.05 1013.52 1013.96 1014.38 1014.79 1015.17 1015.55 1015.92 1016.29 1016.65 1016.99 1017.33 1017.65 1017.93 1018.19 1018.41 1018.59 1018.73 1018.83 1018.90 1018.95 1019.00 1019.05 1019.13 1019.25 1019.43 1019.67 1019.97 1020.34 1020.77 1021.24 1021.73 1022.23 1022.72 1023.16 1023.55 1023.88 1024.13 1024.31
1011.44 1011.99 1012.54 1013.08 1013.60 1014.08 1014.53 1014.95 1015.33 1015.68 1016.01 1016.33 1016.62 1016.91 1017.19 1017.47 1017.73 1018.00 1018.24 1018.48 1018.69 1018.88 1019.04 1019.18 1019.31 1019.43 1019.54 1019.67 1019.82 1020.01 1020.24 1020.52 1020.86 1021.24 1021.66 1022.12 1022.58 1023.04 1023.47 1023.86 1024.19 1024.47 1024.67 1024.82
1012.47 1013.00 1013.53 1014.04 1014.53 1014.98 1015.40 1015.78 1016.12 1016.43 1016.70 1016.95 1017.19 1017.41 1017.63 1017.85 1018.07 1018.30 1018.53 1018.75 1018.97 1019.19 1019.40 1019.59 1019.78 1019.96 1020.14 1020.33 1020.54 1020.77 1021.03 1021.33 1021.67 1022.04 1022.43 1022.85 1023.26 1023.67 1024.05 1024.39 1024.69 1024.92 1025.11 1025.24
1013.35 1013.84 1014.33 1014.81 1015.26 1015.67 1016.05 1016.39 1016.69 1016.96 1017.19 1017.39 1017.58 1017.77 1017.95 1018.14 1018.34 1018.55 1018.78 1019.02 1019.26 1019.52 1019.77 1020.02 1020.27 1020.51 1020.74 1020.98 1021.22 1021.48 1021.75 1022.04 1022.36 1022.69 1023.05 1023.41 1023.78 1024.13 1024.47 1024.78 1025.05 1025.28 1025.47 1025.61
1014.01 1014.46 1014.90 1015.33 1015.74 1016.12 1016.46 1016.77 1017.04 1017.27 1017.48 1017.66 1017.83 1017.99 1018.16 1018.34 1018.54 1018.76 1019.00 1019.26 1019.55 1019.84 1020.14 1020.44 1020.74 1021.02 1021.30 1021.57 1021.83 1022.09 1022.35 1022.62 1022.90 1023.19 1023.50 1023.82 1024.14 1024.46 1024.77 1025.06 1025.33 1025.57 1025.79 1025.97
Thickness
5763 5769 5769 5764 5764 5766 5766 5770 5767 5771 5771 5773 5773 5772 5771 5773 5773 5771 5770 5769 5768 5768 5766 5764 5763 5761 5760 5758 5757 5755 5751 5748 5744 5742 5740 5738 5736 5734 5733 5732 5731 5730 5728 5727
5747 5758 5761 5758 5763 5765 5765 5768 5770 5771 5768 5773 5771 5768 5765 5765 5765 5764 5762 5763 5763 5762 5761 5760 5759 5758 5756 5755 5754 5751 5748 5744 5742 5739 5737 5735 5733 5731 5729 5727 5726 5725 5724 5723
5739 5748 5748 5742 5757 5760 5762 5767 5768 5763 5765 5765 5760 5757 5757 5757 5758 5757 5756 5757 5757 5756 5756 5756 5756 5756 5753 5752 5751 5747 5744 5742 5739 5736 5732 5731 5729 5726 5723 5720 5719 5718 5717 5716
5738 5732 5718 5747 5762 5764 5760 5761 5765 5764 5762 5760 5757 5753 5753 5754 5751 5750 5751 5751 5751 5752 5752 5752 5753 5753 5751 5749 5746 5743 5739 5737 5735 5732 5728 5726 5723 5720 5716 5714 5712 5711 5710 5708
5730 5725 5731 5737 5749 5754 5750 5747 5757 5756 5754 5753 5751 5747 5744 5746 5746 5744 5745 5745 5745 5746 5748 5748 5748 5748 5746 5744 5741 5738 5734 5731 5729 5727 5724 5720 5717 5714 5711 5708 5705 5703 5702 5700
5723 5719 5716 5734 5746 5752 5748 5735 5749 5750 5746 5745 5745 5741 5734 5737 5738 5737 5738 5739 5739 5740 5741 5740 5741 5741 5739 5737 5734 5731 5728 5726 5724 5722 5718 5715 5711 5708 5706 5703 5700 5697 5694 5691
5716 5717 5726 5733 5740 5741 5725 5728 5740 5743 5741 5740 5738 5737 5730 5730 5728 5729 5729 5730 5731 5732 5731 5731 5732 5732 5730 5728 5726 5724 5722 5720 5717 5715 5712 5709 5705 5702 5699 5696 5692 5689 5685 5682
5711 5708 5711 5722 5730 5726 5722 5729 5733 5734 5734 5730 5726 5724 5722 5720 5719 5719 5720 5721 5722 5722 5721 5722 5723 5723 5721 5718 5718 5717 5715 5712 5709 5708 5706 5702 5698 5694 5692 5689 5684 5680 5677 5674
5706 5703 5703 5713 5713 5715 5720 5720 5722 5723 5723 5720 5716 5713 5712 5709 5708 5709 5709 5711 5712 5712 5711 5711 5712 5712 5710 5708 5709 5708 5705 5701 5699 5697 5695 5692 5689 5685 5683 5680 5678 5674 5671 5668
5690 5691 5696 5700 5703 5707 5711 5711 5713 5714 5713 5711 5707 5705 5701 5699 5698 5698 5698 5700 5701 5702 5701 5700 5700 5700 5699 5698 5698 5697 5693 5690 5687 5684 5681 5678 5676 5675 5673 5671 5669 5665 5662 5658
5680 5682 5685 5689 5692 5695 5699 5701 5702 5702 5702 5700 5697 5694 5691 5688 5688 5688 5688 5689 5690 5690 5690 5689 5689 5689 5689 5688 5687 5685 5682 5678 5674 5671 5668 5662 5657 5653 5653 5648 5650 5651 5648 5646
5677 5678 5681 5677 5682 5685 5686 5687 5688 5688 5687 5687 5686 5682 5680 5678 5677 5677 5677 5678 5679 5678 5678 5677 5677 5677 5676 5677 5677 5674 5670 5667 5665 5661 5656 5652 5647 5638 5630 5631 5630 5630 5629 5628
5670 5674 5674 5671 5673 5675 5676 5676 5676 5675 5674 5673 5672 5671 5669 5667 5666 5666 5666 5666 5666 5666 5666 5665 5664 5663 5663 5664 5664 5662 5659 5657 5655 5651 5647 5644 5640 5636 5627 5617 5614 5612 5611 5610
5660 5661 5659 5660 5662 5664 5665 5664 5664 5663 5662 5662 5660 5659 5659 5657 5656 5655 5655 5655 5655 5655 5655 5654 5652 5651 5651 5652 5651 5650 5648 5644 5643 5639 5637 5634 5631 5627 5624 5620 5614 5605 5598 5594
5651 5653 5652 5652 5652 5653 5653 5653 5651 5650 5650 5649 5649 5648 5648 5646 5644 5643 5644 5645 5645 5645 5643 5642 5640 5639 5639 5640 5640 5638 5637 5634 5631 5629 5627 5624 5621 5618 5615 5611 5606 5601 5596 5588
5641 5642 5643 5642 5642 5642 5643 5642 5641 5640 5639 5638 5637 5637 5636 5635 5634 5633 5633 5634 5634 5632 5630 5630 5629 5629 5629 5629 5628 5626 5623 5619 5619 5619 5617 5614 5612 5610 5606 5602 5598 5593 5588 5583
5632 5632 5633 5633 5633 5634 5634 5634 5633 5632 5631 5629 5627 5626 5625 5625 5623 5622 5622 5622 5621 5620 5619 5619 5619 5620 5620 5620 5620 5618 5615 5611 5609 5611 5608 5605 5602 5599 5595 5591 5587 5582 5575 5566
5629 5629 5630 5629 5628 5626 5624 5625 5625 5625 5623 5621 5619 5618 5617 5616 5614 5612 5612 5611 5611 5609 5608 5609 5609 5609 5609 5609 5609 5609 5607 5606 5603 5600 5596 5593 5589 5586 5583 5578 5574 5569 5564 5558
5622 5621 5622 5621 5621 5619 5618 5617 5617 5615 5614 5612 5611 5609 5608 5607 5605 5604 5603 5602 5601 5599 5597 5597 5596 5599 5598 5597 5598 5597 5597 5596 5592 5588 5585 5578 5580 5576 5572 5568 5564 5559 5555 5550
5613 5614 5614 5613 5613 5612 5610 5608 5607 5605 5604 5603 5602 5600 5597 5595 5594 5594 5593 5592 5591 5589 5588 5587 5589 5589 5588 5587 5589 5590 5589 5586 5583 5579 5576 5572 5568 5564 5560 5555 5551 5547 5542 5537
5606 5606 5606 5605 5604 5603 5602 5600 5598 5596 5594 5594 5592 5589 5587 5585 5585 5586 5586 5583 5578 5578 5578 5577 5579 5578 5578 5577 5578 5580 5578 5576 5573 5569 5565 5561 5556 5552 5547 5542 5538 5534 5529 5525
5600 5601 5600 5599 5597 5595 5593 5592 5590 5588 5585 5583 5582 5581 5579 5578 5577 5576 5574 5573 5570 5567 5573 5572 5569 5564 5566 5567 5570 5568 5566 5563 5561 5557 5553 5548 5544 5539 5534 5530 5526 5522 5518 5513
5594 5594 5594 5593 5591 5588 5586 5584 5582 5580 5578 5576 5575 5574 5573 5573 5573 5572 5567 5564 5563 5560 5562 5557 5552 5552 5553 5559 5558 5555 5553 5550 5548 5544 5540 5536 5532 5527 5523 5519 5515 5510 5506 5502
5587 5587 5586 5585 5583 5581 5577 5575 5574 5572 5570 5569 5568 5567 5567 5565 5563 5562 5557 5550 5550 5551 5549 5541 5541 5542 5544 5548 5545 5543 5541 5538 5536 5533 5529 5525 5521 5516 5512 5507 5504 5499 5495 5491
5580 5579 5578 5577 5575 5573 5569 5568 5566 5565 5564 5562 5561 5560 5561 5559 5556 5553 5549 5544 5540 5542 5540 5534 5532 5533 5537 5536 5533 5531 5528 5525 5523 5520 5516 5513 5510 5505 5501 5497 5493 5489 5486 5482
5572 5572 5571 5571 5570 5568 5566 5565 5563 5561 5560 5557 5556 5554 5552 5549 5546 5544 5541 5538 5536 5533 5533 5530 5528 5526 5526 5524 5521 5518 5515 5512 5511 5508 5504 5501 5498 5494 5490 5485 5481 5479 5476 5472
5566 5565 5564 5564 5563 5564 5563 5561 5559 5556 5554 5552 5549 5547 5545 5543 5540 5537 5535 5533 5530 5528 5525 5523 5520 5518 5515 5513 5509 5507 5504 5501 5498 5495 5492 5489 5486 5483 5479 5475 5472 5469 5466 5463